Georgetown, DE

8:50 AM EDT on March 30, 2017 (GMT -0400)
Sussex County

Weather History for KGED - December, 2012

Change the Weather History Date:

Thursday, December 27, 2012

  Actual Average Record
Temperature  
Mean Temperature 45 °F 36 °F  
Max Temperature 51 °F 45 °F 72 °F (2015)
Min Temperature 39 °F 28 °F 3 °F (1989)
Degree Days  
Heating Degree Days 20 28  
Month to date heating degree days 483 681  
Since 1 July heating degree days 1304 1465  
Cooling Degree Days 0 0  
Month to date cooling degree days 0 0  
Year to date cooling degree days 1616 1196  
Moisture  
Dew Point 33 °F    
Average Humidity 75    
Maximum Humidity 96    
Minimum Humidity 54    
Precipitation  
Precipitation 0.00 in 0.09 in 0.66 in (1975)
Month to date precipitation 2.74 2.97  
Year to date precipitation 35.75 43.45  
Sea Level Pressure  
Sea Level Pressure 29.58 in    
Wind  
Wind Speed 14 mph (West)    
Max Wind Speed 29 mph    
Max Gust Speed 43 mph    
Visibility 8 miles    
Events      
T = Trace of Precipitation, MM = Missing Value Source: NWS Daily Summary

Daily Weather History Graph

Daily Weather History Graph

Search for Another Location

Airport or City:

Trip Planner

Search our weather history database for the weather conditions in past years. The results will help you decide how hot, cold, wet, or windy it might be!

Date:

Astronomy

Dec. 27, 2012 Rise Set
Actual Time 7:18 AM EST 4:47 PM EST
Civil Twilight 6:48 AM EST 5:17 PM EST
Nautical Twilight 6:15 AM EST 5:50 PM EST
Astronomical Twilight 5:42 AM EST 6:22 PM EST
Moon 4:28 PM EST (12/27) 6:27 AM EST (12/27)
Length of Visible Light 10h 28m
Length of Day
9h 28m
Full, 100% of the Moon is Illuminated
Dec 27
Full
Dec 28
Full
Jan 4
Last Quarter
Jan 11
New
Jan 18
First Quarter

Hourly Weather History & Observations

Time (EST) Temp. Windchill Dew Point Humidity Pressure Visibility Wind Dir Wind Speed Gust Speed Precip Events Conditions
12:02 AM 50.0 °F - 48.2 °F 94% 29.31 in 1.5 mi Calm Calm - N/A   Overcast
12:11 AM 50.0 °F - 48.2 °F 94% 29.30 in 3.0 mi WSW 5.8 mph - N/A   Overcast
12:41 AM 48.2 °F - 46.4 °F 93% 29.30 in 7.0 mi SW 15.0 mph 23.0 mph N/A   Overcast
12:54 AM 48.0 °F - 46.0 °F 93% 29.31 in 4.0 mi SW 16.1 mph 24.2 mph N/A   Overcast
1:25 AM 44.6 °F 38.1 °F 42.8 °F 93% 29.32 in 2.0 mi SW 13.8 mph 25.3 mph N/A   Overcast
1:54 AM 43.0 °F 34.8 °F 41.0 °F 93% 29.34 in 2.5 mi SW 18.4 mph 25.3 mph N/A   Overcast
2:30 AM 41.0 °F 34.3 °F 39.2 °F 93% 29.35 in 3.0 mi SW 11.5 mph 25.3 mph N/A   Overcast
2:54 AM 39.9 °F 32.5 °F 37.9 °F 93% 29.35 in 3.0 mi WSW 12.7 mph 24.2 mph N/A   Overcast
2:58 AM 39.2 °F 32.0 °F 37.4 °F 93% 29.35 in 2.5 mi WSW 11.5 mph 24.2 mph N/A   Overcast
3:19 AM 39.2 °F 31.2 °F 37.4 °F 93% 29.35 in 3.0 mi WSW 13.8 mph - N/A   Overcast
3:54 AM 42.1 °F 34.9 °F 39.9 °F 92% 29.35 in 6.0 mi West 13.8 mph 21.9 mph N/A   Overcast
4:09 AM 42.8 °F 35.8 °F 39.2 °F 87% 29.35 in 7.0 mi WNW 13.8 mph 20.7 mph N/A   Overcast
4:54 AM 41.0 °F 32.8 °F 37.9 °F 89% 29.39 in 10.0 mi West 16.1 mph 23.0 mph N/A   Overcast
5:36 AM 39.2 °F 29.8 °F 35.6 °F 87% 29.43 in 10.0 mi WNW 18.4 mph 28.8 mph N/A   Overcast
5:54 AM 39.9 °F 30.5 °F 36.0 °F 86% 29.44 in 10.0 mi WNW 19.6 mph 28.8 mph N/A   Overcast
6:54 AM 39.9 °F 32.1 °F 34.0 °F 79% 29.49 in 10.0 mi WNW 13.8 mph 25.3 mph N/A   Overcast
7:25 AM 39.2 °F 30.5 °F 33.8 °F 81% 29.50 in 10.0 mi WNW 16.1 mph 23.0 mph N/A   Overcast
7:54 AM 39.0 °F 31.8 °F 34.0 °F 82% 29.53 in 10.0 mi WNW 11.5 mph 24.2 mph N/A   Overcast
8:54 AM 39.9 °F 32.1 °F 30.9 °F 70% 29.57 in 10.0 mi WNW 13.8 mph 28.8 mph N/A   Overcast
9:47 AM 41.0 °F 32.5 °F 28.4 °F 61% 29.62 in 10.0 mi WNW 17.3 mph 33.4 mph N/A   Mostly Cloudy
9:54 AM 41.0 °F 33.9 °F 28.0 °F 60% 29.63 in 10.0 mi WNW 12.7 mph 33.4 mph N/A   Mostly Cloudy
10:54 AM 39.9 °F 30.5 °F 28.0 °F 63% 29.67 in 10.0 mi NW 19.6 mph 32.2 mph N/A   Overcast
11:54 AM 41.0 °F 33.9 °F 28.0 °F 60% 29.68 in 10.0 mi WNW 12.7 mph 25.3 mph N/A   Overcast
12:54 PM 41.0 °F 31.9 °F 27.0 °F 57% 29.69 in 10.0 mi WNW 19.6 mph 31.1 mph N/A   Overcast
1:54 PM 41.0 °F 33.5 °F 26.1 °F 55% 29.71 in 10.0 mi WNW 13.8 mph 35.7 mph N/A   Overcast
2:54 PM 39.9 °F 31.4 °F 24.1 °F 53% 29.75 in 10.0 mi NW 16.1 mph 31.1 mph N/A   Overcast
3:54 PM 39.9 °F 32.1 °F 25.0 °F 55% 29.80 in 10.0 mi WNW 13.8 mph 23.0 mph N/A   Overcast
4:54 PM 39.9 °F 31.8 °F 24.1 °F 53% 29.82 in 10.0 mi WNW 15.0 mph 29.9 mph N/A   Overcast
5:54 PM 39.9 °F 31.8 °F 24.1 °F 53% 29.85 in 10.0 mi WNW 15.0 mph 25.3 mph N/A   Overcast
6:54 PM 39.0 °F 32.8 °F 24.1 °F 55% 29.88 in 10.0 mi WNW 9.2 mph 18.4 mph N/A   Overcast
7:54 PM 39.0 °F 31.8 °F 25.0 °F 57% 29.90 in 10.0 mi NW 11.5 mph 20.7 mph N/A   Overcast
8:54 PM 39.0 °F 32.8 °F 25.0 °F 57% 29.92 in 10.0 mi WNW 9.2 mph 17.3 mph N/A   Overcast
9:54 PM 39.0 °F 32.3 °F 25.0 °F 57% 29.95 in 10.0 mi WNW 10.4 mph 21.9 mph N/A   Overcast
10:54 PM 39.0 °F 34.0 °F 25.0 °F 57% 29.96 in 10.0 mi NW 6.9 mph 18.4 mph N/A   Overcast
11:54 PM 39.0 °F 32.8 °F 25.0 °F 57% 29.98 in 10.0 mi WNW 9.2 mph 17.3 mph N/A   Overcast